TimePST,TemperatureF,Dew PointF,Humidity,Sea Level PressureIn,VisibilityMPH,Wind Direction,Wind SpeedMPH,Gust SpeedMPH,PrecipitationIn,Events,Conditions,WindDirDegrees,DateUTC
12:53 AM,39.0,30.9,73,30.19,10.0,Calm,Calm,-,N/A,,Clear,0,2014-02-22 08:53:00
1:53 AM,36.0,30.0,79,30.19,10.0,WNW,5.8,-,N/A,,Clear,290,2014-02-22 09:53:00
2:53 AM,39.0,30.9,73,30.19,10.0,Calm,Calm,-,N/A,,Clear,0,2014-02-22 10:53:00
3:53 AM,39.0,30.9,73,30.19,10.0,Calm,Calm,-,N/A,,Clear,0,2014-02-22 11:53:00
4:53 AM,37.9,30.9,76,30.19,10.0,SSE,3.5,-,N/A,,Clear,160,2014-02-22 12:53:00
5:53 AM,37.0,30.0,76,30.19,10.0,Calm,Calm,-,N/A,,Clear,0,2014-02-22 13:53:00
6:53 AM,34.0,28.9,82,30.19,10.0,Calm,Calm,-,N/A,,Clear,0,2014-02-22 14:53:00
7:53 AM,33.1,28.9,85,30.19,10.0,Calm,Calm,-,N/A,,Clear,0,2014-02-22 15:53:00
8:53 AM,39.0,32.0,76,30.18,10.0,Calm,Calm,-,N/A,,Clear,0,2014-02-22 16:53:00
9:53 AM,42.1,32.0,67,30.17,10.0,Calm,Calm,-,N/A,,Clear,0,2014-02-22 17:53:00
10:53 AM,44.1,30.9,60,30.15,10.0,SSW,6.9,-,N/A,,Clear,200,2014-02-22 18:53:00
11:53 AM,48.0,30.0,50,30.13,10.0,NW,8.1,-,N/A,,Overcast,310,2014-02-22 19:53:00
12:53 PM,48.9,28.0,44,30.10,10.0,WNW,18.4,-,N/A,,Overcast,300,2014-02-22 20:53:00
2:53 PM,48.0,28.0,46,30.07,10.0,WNW,18.4,-,N/A,,Clear,300,2014-02-22 22:53:00
3:53 PM,48.9,28.0,44,30.07,10.0,WNW,20.7,-,N/A,,Mostly Cloudy,300,2014-02-22 23:53:00
4:53 PM,46.9,28.9,50,30.07,10.0,WNW,16.1,25.3,N/A,,Scattered Clouds,300,2014-02-23 00:53:00
5:53 PM,45.0,28.0,52,30.08,10.0,WNW,15.0,-,N/A,,Scattered Clouds,300,2014-02-23 01:53:00
6:53 PM,45.0,28.9,53,30.08,10.0,NW,11.5,-,N/A,,Overcast,310,2014-02-23 02:53:00
7:53 PM,44.1,28.9,55,30.07,10.0,NW,9.2,-,N/A,,Overcast,310,2014-02-23 03:53:00
8:53 PM,39.9,28.9,65,30.07,10.0,SW,9.2,-,N/A,,Partly Cloudy,230,2014-02-23 04:53:00
9:53 PM,41.0,28.9,62,30.06,10.0,SW,8.1,-,N/A,,Overcast,220,2014-02-23 05:53:00
11:53 PM,41.0,30.9,67,30.06,10.0,ESE,3.5,-,N/A,,Overcast,120,2014-02-23 07:53:00